EW2748 Weather Reports


Display with metric or nautical units.
time (UTC)temp
F
wind
direction
speed
MPH
gust
MPH
rain 1hr
in
rain 24hr
in
rain mn
in
humidity
%
barometer
mb
20260904024012 84 159 0.0 0.0 0.00 0.00 0.00 73 1016.8
20260904023507 84 159 0.0 0.0 0.00 0.00 0.00 74 1016.7
20260904023019 84 159 0.0 0.0 0.00 0.00 0.00 73 1016.9
20260904022510 84 159 0.0 0.0 0.00 0.00 0.00 72 1017.0
20260904022015 85 159 0.0 0.0 0.00 0.00 0.00 72 1016.7
20260904021516 85 159 0.0 0.0 0.00 0.00 0.00 71 1016.6
20260904021009 85 159 0.0 0.0 0.00 0.00 0.00 70 1016.5
20260904020514 85 159 0.0 0.0 0.00 0.00 0.00 68 1016.6
20260904020038 86 159 0.0 0.0 0.00 0.00 0.00 68 1016.7
20260904015507 86 159 0.0 0.0 0.00 0.00 0.00 68 1016.5
20260904015012 86 159 0.0 0.0 0.00 0.00 0.00 68 1016.4
20260904014531 86 159 0.0 0.0 0.00 0.00 0.00 68 1016.5
20260904014005 86 154 0.0 0.0 0.00 0.00 0.00 70 1016.6
20260904013511 86 153 0.0 0.0 0.00 0.00 0.00 70 1016.3
20260904013030 86 152 0.0 0.0 0.00 0.00 0.00 69 1016.3
20260904012517 87 152 0.0 0.0 0.00 0.00 0.00 69 1016.1
20260904012006 87 153 0.0 0.0 0.00 0.00 0.00 68 1016.3
20260904011533 87 152 0.0 1.0 0.00 0.00 0.00 67 1016.1
20260904011016 87 139 0.0 1.0 0.00 0.00 0.00 67 1016.3
20260904010508 87 148 0.0 2.0 0.00 0.00 0.00 67 1016.1
20260904010022 87 153 0.0 2.0 0.00 0.00 0.00 67 1016.1
20260904005511 87 124 0.0 2.0 0.00 0.00 0.00 68 1016.0
20260904005015 86 132 0.0 2.0 0.00 0.00 0.00 68 1016.0
20260904004517 86 154 0.0 2.0 0.00 0.00 0.00 68 1015.9
20260904004013 87 199 0.0 0.0 0.00 0.00 0.00 68 1015.7
20260904003521 87 199 0.0 0.0 0.00 0.00 0.00 68 1015.8
20260904003013 87 199 0.0 0.0 0.00 0.00 0.00 67 1015.7
20260904002514 88 199 0.0 0.0 0.00 0.00 0.00 65 1015.8
20260904002012 88 199 0.0 0.0 0.00 0.00 0.00 64 1015.6
20260904001533 88 199 0.0 0.0 0.00 0.00 0.00 63 1015.7
20260904001008 89 199 0.0 0.0 0.00 0.00 0.00 64 1015.6
20260904000511 89 199 0.0 0.0 0.00 0.00 0.00 62 1015.7
20260904000040 89 199 0.0 0.0 0.00 0.00 0.00 62 1015.6
20260903235517 90 199 0.0 0.0 0.00 0.00 0.00 61 1015.4
20260903235009 90 199 0.0 0.0 0.00 0.00 0.00 59 1015.3
20260903234528 90 199 0.0 0.0 0.00 0.00 0.00 58 1015.6
20260903234016 91 199 0.0 0.0 0.00 0.00 0.00 58 1015.6
20260903233508 91 199 0.0 0.0 0.00 0.00 0.00 57 1015.4
20260903233027 91 199 0.0 0.0 0.00 0.00 0.00 56 1015.5
20260903232515 92 199 0.0 0.0 0.00 0.00 0.00 54 1015.5
20260903232016 92 199 0.0 0.0 0.00 0.00 0.00 54 1015.6
20260903231523 92 198 0.0 1.0 0.00 0.00 0.00 54 1015.6
20260903231013 92 123 0.0 1.0 0.00 0.00 0.00 53 1015.5
20260903230513 93 136 0.0 0.0 0.00 0.00 0.00 53 1015.4
20260903230017 93 126 0.0 2.0 0.00 0.00 0.00 53 1015.5
20260903225511 93 117 0.0 2.0 0.00 0.00 0.00 51 1015.6
20260903225012 93 136 0.0 1.0 0.00 0.00 0.00 51 1015.5
20260903224540 93 94 1.0 1.0 0.00 0.00 0.00 49 1015.3
20260903224006 93 54 0.0 0.0 0.00 0.00 0.00 50 1015.4
20260903223513 94 54 0.0 1.0 0.00 0.00 0.00 51 1015.4
20260903223041 94 54 0.0 1.0 0.00 0.00 0.00 50 1015.2
20260903222518 94 54 0.0 2.0 0.00 0.00 0.00 49 1015.1
20260903222013 94 91 0.0 2.0 0.00 0.00 0.00 48 1015.3
20260903221534 94 86 0.0 3.0 0.00 0.00 0.00 48 1015.3
20260903221016 94 101 0.0 5.0 0.00 0.00 0.00 48 1015.4
20260903220508 94 106 1.0 5.0 0.00 0.00 0.00 47 1015.2
20260903220027 95 72 1.0 5.0 0.00 0.00 0.00 48 1015.2
20260903215515 95 119 1.0 7.0 0.00 0.00 0.00 48 1015.2
20260903215018 95 112 2.0 7.0 0.00 0.00 0.00 48 1015.1
20260903214524 95 143 2.0 3.0 0.00 0.00 0.00 47 1015.0
20260903214012 95 150 0.0 3.0 0.00 0.00 0.00 48 1014.9
20260903213507 95 103 0.0 3.0 0.00 0.00 0.00 49 1015.2
20260903213029 95 195 0.0 3.0 0.00 0.00 0.00 50 1015.2
20260903212510 96 122 0.0 5.0 0.00 0.00 0.00 48 1015.3
20260903212017 96 141 1.0 5.0 0.00 0.00 0.00 48 1015.2
20260903211515 96 100 0.0 5.0 0.00 0.00 0.00 48 1015.4
20260903211008 96 117 2.0 4.0 0.00 0.00 0.00 48 1015.2
20260903210512 96 95 0.0 4.0 0.00 0.00 0.00 49 1015.4
20260903210011 96 103 0.0 3.0 0.00 0.00 0.00 47 1015.4
20260903205507 96 145 0.0 4.0 0.00 0.00 0.00 49 1015.3
20260903205012 96 185 0.0 4.0 0.00 0.00 0.00 48 1015.5
20260903204533 96 163 1.0 2.0 0.00 0.00 0.00 49 1015.5
20260903204004 95 259 0.0 1.0 0.00 0.00 0.00 51 1015.5
20260903203507 95 259 0.0 2.0 0.00 0.00 0.00 52 1015.5
20260903203034 94 259 0.0 2.0 0.00 0.00 0.00 51 1015.8
20260903202505 94 263 0.0 0.0 0.00 0.00 0.00 51 1015.9
20260903202007 94 104 0.0 0.0 0.00 0.00 0.00 52 1016.0
20260903201530 95 104 0.0 3.0 0.00 0.00 0.00 50 1016.0
20260903201014 95 104 0.0 3.0 0.00 0.00 0.00 49 1016.0
20260903200507 96 90 0.0 2.0 0.00 0.00 0.00 48 1016.2
20260903200024 96 353 0.0 3.0 0.00 0.00 0.00 48 1016.2
20260903195512 96 83 0.0 3.0 0.00 0.00 0.00 48 1016.2
20260903195016 97 60 0.0 2.0 0.00 0.00 0.00 47 1016.1
20260903194529 98 277 0.0 2.0 0.00 0.00 0.00 47 1016.3
20260903194011 98 47 1.0 2.0 0.00 0.00 0.00 45 1016.4
20260903193515 99 243 0.0 4.0 0.00 0.00 0.00 43 1016.5
20260903193012 98 81 1.0 4.0 0.00 0.00 0.00 43 1016.4
20260903192509 98 243 0.0 4.0 0.00 0.00 0.00 42 1016.3
20260903192013 99 155 2.0 4.0 0.00 0.00 0.00 44 1016.6
20260903191531 99 268 0.0 3.0 0.00 0.00 0.00 43 1016.6
20260903191007 99 214 0.0 3.0 0.00 0.00 0.00 44 1016.7
20260903190512 98 141 0.0 3.0 0.00 0.00 0.00 44 1016.6
20260903190032 97 244 0.0 7.0 0.00 0.00 0.00 46 1016.6
20260903185503 97 131 3.0 7.0 0.00 0.00 0.00 46 1016.9
20260903185007 98 83 1.0 5.0 0.00 0.00 0.00 46 1017.0
20260903184528 97 111 2.0 7.0 0.00 0.00 0.00 46 1016.9
20260903184017 97 74 2.0 7.0 0.00 0.00 0.00 45 1016.9
20260903183505 97 60 1.0 4.0 0.00 0.00 0.00 47 1017.0
20260903183025 96 103 1.0 4.0 0.00 0.00 0.00 47 1017.1
20260903182512 97 88 1.0 5.0 0.00 0.00 0.00 46 1017.2
20260903182015 97 175 2.0 5.0 0.00 0.00 0.00 46 1017.2
20260903181516 97 243 0.0 5.0 0.00 0.00 0.00 47 1017.2
20260903181015 97 135 3.0 5.0 0.00 0.00 0.00 46 1017.2
20260903180514 97 122 1.0 5.0 0.00 0.00 0.00 48 1017.3
20260903180018 97 109 2.0 5.0 0.00 0.00 0.00 48 1017.6
20260903175508 97 70 2.0 5.0 0.00 0.00 0.00 48 1017.5
20260903175011 97 97 0.0 5.0 0.00 0.00 0.00 49 1017.4
20260903174531 96 63 1.0 5.0 0.00 0.00 0.00 49 1017.5
20260903174004 96 97 0.0 6.0 0.00 0.00 0.00 49 1017.7
20260903173512 96 89 1.0 6.0 0.00 0.00 0.00 48 1017.9
20260903173032 97 130 1.0 2.0 0.00 0.00 0.00 50 1017.9
20260903172506 97 278 0.0 2.0 0.00 0.00 0.00 49 1018.0
20260903172015 97 278 1.0 3.0 0.00 0.00 0.00 50 1018.0
20260903171532 97 281 0.0 3.0 0.00 0.00 0.00 50 1018.0
20260903171014 96 176 0.0 3.0 0.00 0.00 0.00 53 1018.1
20260903170958 95 127 1.0 5.0 0.00 0.00 0.00 53 1018.1
20260903170953 95 277 0.0 2.0 0.00 0.00 0.00 56 1018.2
20260903170950 94 98 1.0 2.0 0.00 0.00 0.00 56 1018.3
20260903170943 94 68 0.0 2.0 0.00 0.00 0.00 57 1018.3
20260903161007 91 118 2.0 4.0 0.00 0.00 0.00 62 1018.7
20260903160513 92 218 0.0 2.0 0.00 0.00 0.00 64 1018.8
20260903160041 91 155 0.0 2.0 0.00 0.00 0.00 63 1018.9
20260903155506 91 60 0.0 1.0 0.00 0.00 0.00 65 1018.8
20260903155009 91 300 0.0 2.0 0.00 0.00 0.00 64 1018.7
20260903154530 90 89 0.0 2.0 0.00 0.00 0.00 66 1018.6
20260903154015 90 283 0.0 2.0 0.00 0.00 0.00 66 1018.7
20260903153507 90 274 0.0 2.0 0.00 0.00 0.00 64 1018.7
20260903153026 89 149 0.0 2.0 0.00 0.00 0.00 66 1018.6
20260903152025 88 252 0.0 1.0 0.00 0.00 0.00 67 1018.7
20260903151524 88 252 0.0 1.0 0.00 0.00 0.00 67 1018.7
20260903151016 88 189 0.0 1.0 0.00 0.00 0.00 68 1018.7
20260903150515 87 212 0.0 1.0 0.00 0.00 0.00 68 1018.7
20260903150016 87 218 0.0 1.0 0.00 0.00 0.00 67 1018.7
20260903145514 87 219 0.0 1.0 0.00 0.00 0.00 70 1018.7
20260903145015 87 194 0.0 1.0 0.00 0.00 0.00 68 1018.6
20260903144538 86 130 0.0 1.0 0.00 0.00 0.00 69 1018.6
20260903144013 86 131 0.0 1.0 0.00 0.00 0.00 70 1018.6
20260903143515 86 106 0.0 2.0 0.00 0.00 0.00 72 1018.6
20260903143032 85 94 0.0 2.0 0.00 0.00 0.00 73 1018.6
20260903142507 85 103 0.0 1.0 0.00 0.00 0.00 73 1018.7
20260903142017 84 143 0.0 1.0 0.00 0.00 0.00 74 1018.7
20260903141532 84 195 0.0 1.0 0.00 0.00 0.00 76 1018.7
20260903141019 83 266 0.0 1.0 0.00 0.00 0.00 76 1018.8
20260903140508 83 258 0.0 1.0 0.00 0.00 0.00 78 1018.8
20260903140031 83 258 0.0 0.0 0.00 0.00 0.00 79 1018.9
20260903135518 83 259 0.0 0.0 0.00 0.00 0.00 80 1018.9
20260903135018 82 137 0.0 0.0 0.00 0.00 0.00 79 1018.9
20260903134528 82 122 0.0 0.0 0.00 0.00 0.00 80 1018.9
20260903134015 82 154 0.0 1.0 0.00 0.00 0.00 79 1019.0
20260903133518 82 154 0.0 1.0 0.00 0.00 0.00 80 1019.0
20260903133028 82 163 0.0 0.0 0.00 0.00 0.00 80 1019.1
20260903132516 81 162 0.0 1.0 0.00 0.00 0.00 81 1019.0
20260903131535 80 181 0.0 0.0 0.00 0.00 0.00 86 1018.9
20260903131012 79 181 0.0 0.0 0.00 0.00 0.00 87 1018.9
20260903130517 79 182 0.0 0.0 0.00 0.00 0.00 88 1019.1
20260903130039 78 182 0.0 0.0 0.00 0.00 0.00 89 1019.0
20260903125509 78 181 0.0 0.0 0.00 0.00 0.00 90 1019.0
20260903125003 77 182 0.0 0.0 0.00 0.00 0.00 91 1019.1
20260903124511 77 182 0.0 0.0 0.00 0.00 0.00 91 1019.0
20260903124006 76 182 0.0 0.0 0.00 0.00 0.00 92 1019.1
20260903123510 76 182 0.0 0.0 0.00 0.00 0.00 93 1019.0
20260903123004 75 182 0.0 0.0 0.00 0.00 0.00 93 1018.9
20260903122008 75 182 0.0 0.0 0.00 0.00 0.00 94 1018.8
20260903121508 74 182 0.0 0.0 0.00 0.00 0.00 94 1018.7
20260903121003 74 182 0.0 0.0 0.00 0.00 0.00 94 1018.6
20260903120507 74 182 0.0 0.0 0.00 0.00 0.00 95 1018.7
20260903120026 74 182 0.0 0.0 0.00 0.00 0.00 95 1018.7
20260903115504 74 182 0.0 0.0 0.00 0.00 0.00 95 1018.6
20260903115004 74 182 0.0 0.0 0.00 0.00 0.00 95 1018.6
20260903114524 74 182 0.0 0.0 0.00 0.00 0.00 95 1018.6
20260903114014 74 182 0.0 0.0 0.00 0.00 0.00 95 1018.5
20260903113504 74 182 0.0 0.0 0.00 0.00 0.00 95 1018.6
20260903113019 74 182 0.0 0.0 0.00 0.00 0.00 94 1018.5
20260903112515 74 182 0.0 0.0 0.00 0.00 0.00 94 1018.4
20260903112004 74 182 0.0 0.0 0.00 0.00 0.00 94 1018.3
20260903111512 74 182 0.0 0.0 0.00 0.00 0.00 94 1018.3
20260903111012 74 182 0.0 0.0 0.00 0.00 0.00 94 1018.2
20260903110512 74 181 0.0 0.0 0.00 0.00 0.00 94 1018.2
20260903110010 74 182 0.0 0.0 0.00 0.00 0.00 94 1018.1
20260903105508 74 182 0.0 0.0 0.00 0.00 0.00 94 1018.1
20260903105011 74 181 0.0 0.0 0.00 0.00 0.00 94 1018.0
20260903104837 74 182 0.0 0.0 0.00 0.00 0.00 94 1018.0
20260903104831 75 181 0.0 0.0 0.00 0.00 0.00 94 1017.9
20260903104828 75 181 0.0 0.0 0.00 0.00 0.00 93 1017.9
20260903102504 75 181 0.0 0.0 0.00 0.00 0.00 93 1017.9
20260903102007 75 181 0.0 0.0 0.00 0.00 0.00 94 1017.8
20260903101524 74 182 0.0 0.0 0.00 0.00 0.00 95 1017.9
20260903101005 74 181 0.0 0.0 0.00 0.00 0.00 95 1017.8
20260903100509 74 182 0.0 0.0 0.00 0.00 0.00 94 1017.9
20260903100034 74 182 0.0 0.0 0.00 0.00 0.00 94 1017.8
20260903095513 74 181 0.0 0.0 0.00 0.00 0.00 94 1017.8
20260903095059 74 182 0.0 0.0 0.00 0.00 0.00 94 1017.7
20260903095053 74 182 0.0 0.0 0.00 0.00 0.00 94 1017.7
20260903095049 75 182 0.0 0.0 0.00 0.00 0.00 94 1017.7
20260903092512 75 181 0.0 0.0 0.00 0.00 0.00 94 1017.7
20260903092121 75 182 0.0 0.0 0.00 0.00 0.00 93 1017.7
20260903085504 75 181 0.0 0.0 0.00 0.00 0.00 93 1017.7
20260903085053 75 181 0.0 0.0 0.00 0.00 0.00 93 1017.6
20260903085050 75 182 0.0 0.0 0.00 0.00 0.00 93 1017.6
20260903085045 75 181 0.0 0.0 0.00 0.00 0.00 93 1017.5
20260903085041 75 181 0.0 0.0 0.00 0.00 0.00 93 1017.5
20260903082513 75 181 0.0 0.0 0.00 0.00 0.00 92 1017.6
20260903082008 75 181 0.0 0.0 0.00 0.00 0.00 92 1017.7
20260903081521 75 181 0.0 0.0 0.00 0.00 0.00 93 1017.6
20260903081012 75 181 0.0 0.0 0.00 0.00 0.00 92 1017.4
20260903080516 75 181 0.0 0.0 0.00 0.00 0.00 92 1017.4
20260903080014 76 181 0.0 0.0 0.00 0.00 0.00 92 1017.6
20260903075511 76 181 0.0 0.0 0.00 0.00 0.00 92 1017.6
20260903075014 76 181 0.0 0.0 0.00 0.00 0.00 92 1017.6
20260903074509 76 181 0.0 0.0 0.00 0.00 0.00 92 1017.6
20260903074007 76 181 0.0 0.0 0.00 0.00 0.00 92 1017.6
20260903073512 76 181 0.0 0.0 0.00 0.00 0.00 91 1017.6
20260903073036 76 181 0.0 0.0 0.00 0.00 0.00 91 1017.7
20260903072008 76 181 0.0 0.0 0.00 0.00 0.00 91 1017.6
20260903071530 76 181 0.0 0.0 0.00 0.00 0.00 91 1017.7
20260903071004 76 181 0.0 0.0 0.00 0.00 0.00 90 1017.7
20260903070507 76 181 0.0 0.0 0.00 0.00 0.00 90 1017.6
20260903070025 76 181 0.0 0.0 0.00 0.00 0.00 90 1017.6
20260903065514 76 181 0.0 0.0 0.00 0.00 0.00 90 1017.6
20260903065004 77 181 0.0 0.0 0.00 0.00 0.00 90 1017.6
20260903064522 77 181 0.0 0.0 0.00 0.00 0.00 90 1017.7
20260903064014 77 181 0.0 0.0 0.00 0.00 0.00 90 1017.7
20260903063504 77 181 0.0 0.0 0.00 0.00 0.00 90 1017.7
20260903063017 77 181 0.0 0.0 0.00 0.00 0.00 90 1017.8
20260903062512 77 181 0.0 0.0 0.00 0.00 0.00 90 1017.8
20260903062014 77 181 0.0 0.0 0.00 0.00 0.00 89 1017.8
20260903061512 77 181 0.0 0.0 0.00 0.00 0.00 89 1017.8
20260903061011 77 181 0.0 0.0 0.00 0.00 0.00 89 1017.9
20260903060513 77 181 0.0 0.0 0.00 0.00 0.00 89 1018.0
20260903060033 77 181 0.0 0.0 0.00 0.00 0.00 89 1017.9
20260903055507 77 181 0.0 0.0 0.00 0.00 0.00 89 1017.8
20260903055012 77 181 0.0 0.0 0.00 0.00 0.00 89 1017.9
20260903054531 77 181 0.0 0.0 0.00 0.00 0.00 89 1018.0
20260903054009 77 181 0.0 0.0 0.00 0.00 0.00 89 1017.9
20260903053510 77 181 0.0 0.0 0.00 0.00 0.00 89 1017.9
20260903053029 77 181 0.0 0.0 0.00 0.00 0.00 89 1017.9
20260903052519 78 181 0.0 0.0 0.00 0.00 0.00 89 1017.9
20260903052008 78 181 0.0 0.0 0.00 0.00 0.00 89 1018.1
20260903051527 78 181 0.0 0.0 0.00 0.00 0.00 88 1018.0
20260903051013 78 181 0.0 0.0 0.00 0.00 0.00 88 1018.0
20260903050506 78 181 0.0 0.0 0.00 0.00 0.00 88 1018.0
20260903050034 78 181 0.0 0.0 0.00 0.00 0.00 88 1017.9
20260903045514 78 181 0.0 0.0 0.00 0.00 0.00 88 1017.9
20260903045020 78 181 0.0 0.0 0.00 0.00 0.00 88 1018.0
20260903044512 78 181 0.0 0.0 0.00 0.00 0.00 88 1017.9
20260903044016 78 181 0.0 0.0 0.00 0.00 0.00 87 1017.6
20260903043516 78 181 0.0 0.0 0.00 0.00 0.00 87 1017.8
20260903043030 78 181 0.0 0.0 0.00 0.00 0.00 87 1017.8
20260903042512 78 181 0.0 0.0 0.00 0.00 0.00 86 1017.9
20260903042015 79 181 0.0 0.0 0.00 0.00 0.00 86 1017.8
20260903041511 79 181 0.0 0.0 0.00 0.00 0.00 86 1017.5
20260903041012 79 181 0.0 0.0 0.00 0.00 0.00 86 1017.7
20260903040511 79 181 0.0 0.0 0.00 0.00 0.00 85 1017.7
20260903040010 79 181 0.0 0.0 0.00 0.00 0.00 85 1017.8
20260903035503 79 181 0.0 0.0 0.00 0.00 0.00 85 1017.8
20260903035008 79 181 0.0 0.0 0.00 0.00 0.00 85 1017.6
20260903034526 79 181 0.0 0.0 0.00 0.00 0.00 83 1017.8
20260903034004 79 181 0.0 0.0 0.00 0.00 0.00 83 1017.9
20260903033508 79 181 0.0 0.0 0.00 0.00 0.00 83 1018.0
20260903033029 80 181 0.0 0.0 0.00 0.00 0.00 83 1017.9
20260903032515 80 181 0.0 0.0 0.00 0.00 0.00 82 1017.8
20260903032005 80 181 0.0 0.0 0.00 0.00 0.00 82 1018.0
20260903031527 80 181 0.0 0.0 0.00 0.00 0.00 82 1018.0
20260903031013 80 181 0.0 0.0 0.00 0.00 0.00 82 1018.1
20260903030508 80 181 0.0 0.0 0.00 0.00 0.00 80 1017.8
20260903030021 80 181 0.0 0.0 0.00 0.00 0.00 80 1017.8
20260903025509 80 181 0.0 0.0 0.00 0.00 0.00 81 1018.0
20260903025014 80 181 0.0 0.0 0.00 0.00 0.00 81 1018.0
20260903024511 81 181 0.0 0.0 0.00 0.00 0.00 80 1017.9